TimeEST,TemperatureF,Dew PointF,Humidity,Sea Level PressureIn,VisibilityMPH,Wind Direction,Wind SpeedMPH,Gust SpeedMPH,PrecipitationIn,Events,Conditions,WindDirDegrees,DateUTC
12:54 AM,7.0,-2.0,67,30.05,10.0,WSW,4.6,-,N/A,,Mostly Cloudy,240,2013-01-23 05:54:00
1:13 AM,6.1,-2.9,67,29.98,10.0,West,10.4,-,N/A,,Scattered Clouds,260,2013-01-23 06:13:00
1:54 AM,6.1,-5.1,60,30.06,10.0,West,10.4,-,N/A,,Clear,270,2013-01-23 06:54:00
2:54 AM,5.0,-6.0,61,30.07,10.0,West,9.2,-,N/A,,Clear,260,2013-01-23 07:54:00
3:54 AM,3.9,-7.1,60,30.07,10.0,WSW,9.2,-,N/A,,Clear,250,2013-01-23 08:54:00
4:54 AM,3.9,-7.1,60,30.07,10.0,WSW,13.8,-,N/A,,Clear,250,2013-01-23 09:54:00
5:54 AM,3.0,-8.0,60,30.09,10.0,West,10.4,-,N/A,,Clear,260,2013-01-23 10:54:00
6:54 AM,3.0,-9.0,57,30.10,10.0,West,11.5,-,N/A,,Clear,260,2013-01-23 11:54:00
7:54 AM,3.0,-9.0,57,30.11,10.0,West,12.7,-,N/A,,Clear,260,2013-01-23 12:54:00
8:54 AM,5.0,-9.0,52,30.12,10.0,West,12.7,26.5,N/A,,Clear,260,2013-01-23 13:54:00
9:54 AM,6.1,-8.0,53,30.12,10.0,West,21.9,29.9,N/A,,Mostly Cloudy,280,2013-01-23 14:54:00
10:54 AM,7.0,-7.1,53,30.11,10.0,West,17.3,24.2,N/A,,Overcast,280,2013-01-23 15:54:00
11:54 AM,8.1,-6.0,53,30.09,10.0,WNW,13.8,21.9,N/A,,Overcast,300,2013-01-23 16:54:00
12:54 PM,10.0,-9.9,40,30.06,10.0,WNW,18.4,33.4,N/A,,Partly Cloudy,290,2013-01-23 17:54:00
1:54 PM,10.9,-9.0,40,30.05,10.0,WNW,21.9,29.9,N/A,,Partly Cloudy,290,2013-01-23 18:54:00
2:54 PM,10.0,-9.0,42,30.08,10.0,WNW,6.9,-,N/A,,Partly Cloudy,290,2013-01-23 19:54:00
3:54 PM,9.0,-11.9,38,30.08,10.0,WNW,17.3,-,N/A,,Clear,290,2013-01-23 20:54:00
4:54 PM,8.6,-13.0,37,30.00,10.0,West,13.8,-,N/A,,Clear,280,2013-01-23 21:54:00
5:54 PM,7.0,-11.9,42,30.10,10.0,West,8.1,-,N/A,,Clear,260,2013-01-23 22:54:00
6:54 PM,5.0,-11.9,46,30.12,10.0,West,9.2,-,N/A,,Clear,280,2013-01-23 23:54:00
7:54 PM,3.9,-11.9,48,30.13,10.0,West,5.8,-,N/A,,Clear,270,2013-01-24 00:54:00
8:54 PM,3.0,-11.9,50,30.13,10.0,West,6.9,-,N/A,,Clear,260,2013-01-24 01:54:00
9:54 PM,1.9,-11.0,55,30.12,10.0,West,8.1,-,N/A,,Clear,260,2013-01-24 02:54:00
10:54 PM,1.9,-11.0,55,30.12,10.0,West,12.7,-,N/A,,Clear,270,2013-01-24 03:54:00
11:54 PM,1.0,-11.0,57,30.11,10.0,West,13.8,-,N/A,,Clear,270,2013-01-24 04:54:00